Weather Roundup
Issued by NWS

Home | Current Version | Previous Version | Text Only | Print | Product List | Glossary On
Versions: 1 2 3 4 5 6 7 8 9 10 11 12 13 14 15 16 17 18 19 20 21 22 23 24 25 26 27 28 29 30 31 32 33 34 35 36 37 38 39 40 41 42 43 44 45 46 47 48 49 50
000
NZUS93 KARX 252359
HRRWXR

CURRENT HOURLY OBSERVATIONS ACROSS
MUCH OF THE UPPER MISSISSIPPI VALLEY
NATIONAL WEATHER SERVICE LA CROSSE WI
600 PM CST THU DEC 25 2014


...SOUTHEAST MINNESOTA...


CITY           SKY/WX    TMP DP  RH WIND       PRES   REMARKS
ROCHESTER      CLOUDY    32  28  85 SE5       29.79R WCI  27
ROCHESTER/MAYO FAIR      34  29  82 E5        29.80R WCI  30
WINONA         CLOUDY    36  32  87 CALM      29.82S
AUSTIN         CLOUDY    34  30  86 CALM      29.78R
ALBERT LEA     CLOUDY    34  32  93 CALM      29.78R
DODGE CENTER   CLOUDY    32  30  93 CALM      29.79R
PRESTON        CLOUDY    33  30  88 SE5       29.79S WCI  29
OWATONNA       CLOUDY    34  28  80 E3        29.79R
FARIBAULT      CLOUDY    34  30  86 E3        29.79S
$$

...ELSEWHERE IN MINNESOTA...


CITY           SKY/WX    TMP DP  RH WIND       PRES   REMARKS
MINNEAPOLIS    CLOUDY    34  29  82 SE6       29.81R WCI  29
INTNL FALLS    CLOUDY    28  23  81 W6        29.82R WCI  22
DULUTH         CLOUDY    31  25  78 NW6       29.79R WCI  25
RED WING       CLOUDY    34  28  80 CALM      29.81R
REDWOOD FALLS  CLOUDY    33  30  88 VRB5      29.80R WCI  29
MANKATO        CLOUDY    34  28  80 NE5       29.79R WCI  30
WORTHINGTON    CLOUDY    30 -17  12 NE15      29.76R WCI  19
FAIRMONT       MOCLDY    34  28  80 CALM      29.77R
$$

...SOUTHWEST WISCONSIN...


CITY           SKY/WX    TMP DP  RH WIND       PRES   REMARKS
LA CROSSE      PTCLDY    37  30  75 E5        29.82R WCI  33
PRAIRIE DU CHI CLOUDY    40  31  70 E6        29.82S
BOSCOBEL       CLOUDY    41  31  67 CALM      29.85R
LONE ROCK      NOT AVBL
PLATTEVILLE    CLOUDY    38  33  79 SE8       29.85S WCI  33
FORT MC COY    PTCLDY    30  28  92 CALM      29.85R
VIROQUA        FAIR      36  33  89 SE9       29.81S WCI  29
WIS DELLS      NOT AVBL
$$

...ELSEWHERE IN WISCONSIN...


CITY           SKY/WX    TMP DP  RH WIND       PRES   REMARKS
MILWAUKEE      MOCLDY    39  30  70 S9        29.94R WCI  33
MADISON        PTCLDY    39  32  76 S9        29.88R WCI  33
GREEN BAY      CLOUDY    33  31  92 S6        29.90R WCI  28
EAU CLAIRE     NOT AVBL
BLACK RVR FLS  FAIR      30  29  96 E3        29.83R
MEDFORD        CLOUDY    30  28  90 S5        29.81R WCI  25
WAUSAU         CLOUDY    31  27  85 S6        29.84R WCI  25
WIS RAPIDS     MOCLDY    31  27  85 CALM      29.87R
MARSHFIELD     CLOUDY    32  27  81 E3        29.84R
RICE LAKE      LGT SNOW  32  31  95 CALM      29.83R
$$

...NORTHEAST IOWA...


CITY           SKY/WX    TMP DP  RH WIND       PRES   REMARKS
DECORAH        CLOUDY    37  32  81 SE5       29.79R WCI  34
MASON CITY     PTCLDY    35  32  88 SE6       29.78R WCI  30
CHARLES CITY   MOCLDY    37  34  87 SE8       29.80R WCI  31
OELWEIN        CLOUDY    39  32  75 S12       29.79R WCI  32
$$

...ELSEWHERE IN IOWA...


CITY           SKY/WX    TMP DP  RH WIND       PRES   REMARKS
DES MOINES     MOCLDY    45  30  55 SE10      29.74R
IOWA CITY      PTCLDY    41  33  73 SE10      29.85R
FORT DODGE     CLEAR     34  28  80 E8        29.73S WCI  27
$$

...NORTHERN ILLINOIS...


CITY           SKY/WX    TMP DP  RH WIND       PRES   REMARKS
CHICAGO-OHARE  MOCLDY    40  34  79 S13       29.98R WCI  32
CHICAGO-MIDWAY MOCLDY    42  35  76 S10       30.01R
MOLINE         PTCLDY    41  31  67 SE12      29.88S
ROCKFORD       MOCLDY    41  33  73 S13       29.94S
PEORIA         PTCLDY    44  34  67 S13       29.95S
$$

NOTE: "FAIR" INDICATES FEW OR NO CLOUDS BELOW 12,000 FEET WITH NO
SIGNIFICANT WEATHER AND/OR OBSTRUCTIONS TO VISIBILITY. WIND
SPEEDS ARE IN MILES-PER-HOUR.



USA.gov is the U.S. government's official web portal to all federal, state and local government web resources and services.